Fort Madison, IA

3:59 PM CST on February 19, 2017 (GMT -0600)
Fort Madison Municipal

Weather History for KFSW - January, 2014

Change the Weather History Date:

Monday, January 27, 2014

  Actual Average Record
Temperature  
Mean Temperature 2 °F -  
Max Temperature 6 °F 32 °F 64 °F (2002)
Min Temperature -2 °F 13 °F -14 °F (1955)
Degree Days  
Heating Degree Days 63    
Moisture  
Dew Point -14 °F    
Average Humidity 48    
Maximum Humidity 66    
Minimum Humidity 34    
Precipitation  
Precipitation 0.00 in - - ()
Sea Level Pressure  
Sea Level Pressure 30.38 in    
Wind  
Wind Speed 18 mph (NW)    
Max Wind Speed 29 mph    
Max Gust Speed 40 mph    
Visibility 10 miles    
Events      
Averages and records for this station are not official NWS values.
T = Trace of Precipitation, MM = Missing Value Source: NWS Daily Summary

Daily Weather History Graph

Daily Weather History Graph

Search for Another Location

Airport or City:

Trip Planner

Search our weather history database for the weather conditions in past years. The results will help you decide how hot, cold, wet, or windy it might be!

Date:

Astronomy

Jan. 27, 2014 Rise Set
Actual Time 7:19 AM CST 5:17 PM CST
Civil Twilight 6:50 AM CST 5:46 PM CST
Nautical Twilight 6:17 AM CST 6:19 PM CST
Astronomical Twilight 5:45 AM CST 6:51 PM CST
Moon 4:01 AM CST (1/27) 2:03 PM CST (1/27)
Length of Visible Light 10h 55m
Length of Day
9h 57m
Waning Crescent, 14% of the Moon is Illuminated
Jan 27
Waning Crescent
Jan 30
New
Feb 6
First Quarter
Feb 14
Full
Feb 22
Last Quarter

Hourly Weather History & Observations

Time (CST) Temp. Windchill Dew Point Humidity Pressure Visibility Wind Dir Wind Speed Gust Speed Precip Events Conditions
12:15 AM 6.8 °F -15.1 °F -11.2 °F 44% 30.12 in 10.0 mi NW 25.3 mph 38.0 mph N/A   Clear
12:35 AM 6.8 °F -16.2 °F -11.2 °F 44% 30.12 in 10.0 mi NW 28.8 mph 40.3 mph N/A   Clear
12:55 AM 5.0 °F -17.1 °F -14.8 °F 40% 30.14 in 10.0 mi NW 24.2 mph 40.3 mph N/A   Clear
1:15 AM 5.0 °F -17.1 °F -11.2 °F 47% 30.15 in 10.0 mi NW 24.2 mph 31.1 mph N/A   Clear
1:35 AM 3.2 °F -19.5 °F -11.2 °F 51% 30.17 in 10.0 mi NW 24.2 mph 35.7 mph N/A   Clear
1:55 AM 3.2 °F -18.6 °F -11.2 °F 51% 30.18 in 10.0 mi NW 21.9 mph 29.9 mph N/A   Clear
2:15 AM 3.2 °F -19.9 °F -11.2 °F 51% 30.19 in 10.0 mi NW 25.3 mph 28.8 mph N/A   Clear
2:35 AM 3.2 °F -19.0 °F -11.2 °F 51% 30.21 in 10.0 mi NW 23.0 mph 32.2 mph N/A   Clear
2:55 AM 3.2 °F -15.9 °F -9.4 °F 56% 30.21 in 10.0 mi NW 16.1 mph 27.6 mph N/A   Scattered Clouds
3:15 AM 3.2 °F -19.5 °F -11.2 °F 51% 30.23 in 10.0 mi NW 24.2 mph 29.9 mph N/A   Mostly Cloudy
3:35 AM 1.4 °F -17.6 °F -11.2 °F 56% 30.25 in 10.0 mi WNW 15.0 mph 26.5 mph N/A   Mostly Cloudy
3:55 AM 1.4 °F -21.4 °F -13.0 °F 51% 30.26 in 10.0 mi NW 23.0 mph 31.1 mph N/A   Mostly Cloudy
4:15 AM 1.4 °F -19.9 °F -13.0 °F 51% 30.26 in 10.0 mi NW 19.6 mph 27.6 mph N/A   Scattered Clouds
4:35 AM 1.4 °F -17.6 °F -11.2 °F 56% 30.27 in 10.0 mi WNW 15.0 mph 21.9 mph N/A   Mostly Cloudy
4:55 AM 1.4 °F -21.0 °F -11.2 °F 56% 30.28 in 10.0 mi WNW 21.9 mph 26.5 mph N/A   Overcast
5:15 AM 1.4 °F -21.9 °F -14.8 °F 47% 30.29 in 10.0 mi WNW 24.2 mph 27.6 mph N/A   Mostly Cloudy
5:35 AM -0.4 °F -22.3 °F -14.8 °F 51% 30.29 in 10.0 mi NW 19.6 mph 31.1 mph N/A   Scattered Clouds
5:55 AM -0.4 °F -22.3 °F -14.8 °F 51% 30.31 in 10.0 mi NW 19.6 mph 27.6 mph N/A   Mostly Cloudy
6:15 AM -0.4 °F -21.7 °F -14.8 °F 51% 30.31 in 10.0 mi WNW 18.4 mph 28.8 mph N/A   Mostly Cloudy
6:35 AM -0.4 °F -21.7 °F -14.8 °F 51% 30.31 in 10.0 mi NW 18.4 mph 25.3 mph N/A   Mostly Cloudy
6:55 AM -0.4 °F -19.9 °F -13.0 °F 55% 30.32 in 10.0 mi WNW 15.0 mph 19.6 mph N/A   Scattered Clouds
7:15 AM -0.4 °F -22.3 °F -14.8 °F 51% 30.33 in 10.0 mi WNW 19.6 mph 25.3 mph N/A   Scattered Clouds
7:35 AM -0.4 °F -22.8 °F -14.8 °F 51% 30.34 in 10.0 mi NW 20.7 mph 26.5 mph N/A   Clear
7:55 AM 1.4 °F -18.8 °F -14.8 °F 47% 30.35 in 10.0 mi NW 17.3 mph 20.7 mph N/A   Scattered Clouds
8:15 AM 1.4 °F -19.9 °F -14.8 °F 47% 30.35 in 10.0 mi NW 19.6 mph 25.3 mph N/A   Scattered Clouds
8:35 AM 1.4 °F -21.0 °F -14.8 °F 47% 30.36 in 10.0 mi WNW 21.9 mph 27.6 mph N/A   Clear
8:55 AM 1.4 °F -20.5 °F -14.8 °F 47% 30.37 in 10.0 mi WNW 20.7 mph 25.3 mph N/A   Scattered Clouds
9:15 AM 1.4 °F -21.4 °F -14.8 °F 47% 30.38 in 10.0 mi NW 23.0 mph 28.8 mph N/A   Scattered Clouds
9:35 AM 1.4 °F -21.4 °F -14.8 °F 47% 30.39 in 10.0 mi NW 23.0 mph 27.6 mph N/A   Scattered Clouds
9:55 AM 3.2 °F -17.6 °F -14.8 °F 43% 30.39 in 10.0 mi NW 19.6 mph 25.3 mph N/A   Clear
10:15 AM 3.2 °F -16.5 °F -14.8 °F 43% 30.40 in 10.0 mi NW 17.3 mph 26.5 mph N/A   Clear
10:35 AM 3.2 °F -16.5 °F -16.6 °F 39% 30.41 in 10.0 mi NW 17.3 mph 28.8 mph N/A   Clear
10:55 AM 3.2 °F -15.3 °F -14.8 °F 43% 30.42 in 10.0 mi NW 15.0 mph 25.3 mph N/A   Scattered Clouds
11:15 AM 3.2 °F -17.6 °F -16.6 °F 39% 30.41 in 10.0 mi NW 19.6 mph 26.5 mph N/A   Scattered Clouds
11:35 AM 5.0 °F -13.6 °F -14.8 °F 40% 30.41 in 10.0 mi NW 16.1 mph 23.0 mph N/A   Clear
11:55 AM 5.0 °F -13.6 °F -14.8 °F 40% 30.41 in 10.0 mi NW 16.1 mph 26.5 mph N/A   Scattered Clouds
12:15 PM 6.8 °F -12.9 °F -14.8 °F 37% 30.40 in 10.0 mi WNW 19.6 mph 25.3 mph N/A   Mostly Cloudy
12:35 PM 6.8 °F -12.4 °F -13.0 °F 40% 30.40 in 10.0 mi NW 18.4 mph 25.3 mph N/A   Mostly Cloudy
12:55 PM 6.8 °F -9.3 °F -13.0 °F 40% 30.40 in 10.0 mi NW 12.7 mph 23.0 mph N/A   Overcast
1:15 PM 6.8 °F -11.8 °F -11.2 °F 44% 30.40 in 10.0 mi NNW 17.3 mph 23.0 mph N/A   Overcast
1:35 PM 6.8 °F -11.3 °F -13.0 °F 40% 30.40 in 10.0 mi NW 16.1 mph 24.2 mph N/A   Overcast
1:55 PM 6.8 °F -11.8 °F -13.0 °F 40% 30.41 in 10.0 mi NW 17.3 mph 23.0 mph N/A   Mostly Cloudy
2:15 PM 6.8 °F -10.0 °F -11.2 °F 44% 30.41 in 10.0 mi NNW 13.8 mph 21.9 mph N/A   Mostly Cloudy
2:35 PM 6.8 °F -10.7 °F -11.2 °F 44% 30.41 in 10.0 mi NW 15.0 mph - N/A   Mostly Cloudy
2:55 PM 6.8 °F -11.3 °F -14.8 °F 37% 30.41 in 10.0 mi NNW 16.1 mph 20.7 mph N/A   Scattered Clouds
3:15 PM 6.8 °F -11.8 °F -16.6 °F 34% 30.42 in 10.0 mi NW 17.3 mph 21.9 mph N/A   Clear
3:35 PM 6.8 °F -11.3 °F -16.6 °F 34% 30.42 in 10.0 mi NW 16.1 mph 23.0 mph N/A   Clear
3:55 PM 6.8 °F -10.0 °F -14.8 °F 37% 30.43 in 10.0 mi WNW 13.8 mph 23.0 mph N/A   Clear
4:15 PM 6.8 °F -11.3 °F -16.6 °F 34% 30.44 in 10.0 mi NNW 16.1 mph 19.6 mph N/A   Clear
4:35 PM 5.0 °F -11.6 °F -16.6 °F 36% 30.45 in 10.0 mi NW 12.7 mph - N/A   Clear
4:55 PM 5.0 °F -12.3 °F -16.6 °F 36% 30.45 in 10.0 mi NW 13.8 mph - N/A   Clear
5:15 PM 3.2 °F -12.2 °F -16.6 °F 39% 30.45 in 10.0 mi NW 10.4 mph - N/A   Clear
5:35 PM 3.2 °F -10.3 °F -14.8 °F 43% 30.46 in 10.0 mi NW 8.1 mph - N/A   Clear
5:55 PM 1.4 °F -8.3 °F -14.8 °F 47% 30.47 in 10.0 mi NW 4.6 mph - N/A   Clear
6:15 PM 1.4 °F -8.3 °F -14.8 °F 47% 30.47 in 10.0 mi NW 4.6 mph - N/A   Clear
6:35 PM 1.4 °F -8.3 °F -14.8 °F 47% 30.47 in 10.0 mi NNW 4.6 mph - N/A   Clear
6:55 PM -0.4 °F -10.4 °F -14.8 °F 51% 30.48 in 10.0 mi NNW 4.6 mph - N/A   Clear
7:15 PM -0.4 °F -12.0 °F -13.0 °F 55% 30.48 in 10.0 mi NNW 5.8 mph - N/A   Clear
7:35 PM -0.4 °F -8.3 °F -13.0 °F 55% 30.48 in 10.0 mi NNW 3.5 mph - N/A   Clear
7:55 PM -0.4 °F -8.3 °F -14.8 °F 51% 30.48 in 10.0 mi NNW 3.5 mph - N/A   Clear
8:15 PM -0.4 °F - -13.0 °F 55% 30.48 in 10.0 mi Calm Calm - N/A   Clear
8:35 PM -0.4 °F - -11.2 °F 60% 30.49 in 10.0 mi Calm Calm - N/A   Clear
8:55 PM -0.4 °F - -13.0 °F 55% 30.49 in 10.0 mi Calm Calm - N/A   Clear
9:15 PM -0.4 °F -10.4 °F -13.0 °F 55% 30.50 in 10.0 mi NW 4.6 mph - N/A   Clear
9:35 PM -2.2 °F -12.5 °F -14.8 °F 55% 30.50 in 10.0 mi NW 4.6 mph - N/A   Clear
9:55 PM -2.2 °F -10.4 °F -11.2 °F 66% 30.50 in 10.0 mi WNW 3.5 mph - N/A   Clear
10:15 PM -2.2 °F -10.4 °F -14.8 °F 55% 30.50 in 10.0 mi NNW 3.5 mph - N/A   Clear
10:35 PM -0.4 °F - -13.0 °F 55% 30.50 in 10.0 mi Calm Calm - N/A   Clear
10:55 PM -0.4 °F - -14.8 °F 51% 30.50 in 10.0 mi Calm Calm - N/A   Clear
11:15 PM -2.2 °F -10.4 °F -13.0 °F 60% 30.50 in 10.0 mi WNW 3.5 mph - N/A   Clear
11:35 PM -2.2 °F -10.4 °F -13.0 °F 60% 30.50 in 10.0 mi West 3.5 mph - N/A   Clear
11:55 PM -2.2 °F -10.4 °F -13.0 °F 60% 30.50 in 10.0 mi West 3.5 mph - N/A   Clear